Location: B�rgermoos
(47.6500°N, 9.0667°E)
Time: 09:13:20
(UTC+00:00)

A-11 Canister half - Pass Details

Date: 09 August 2021
Orbit: 1526 x 1683 km, 47.3° (Epoch: 20 September)

Event Time Altitude Azimuth Distance (km) Brightness Sun altitude
Rises 11:22:56 0° 268° (W) 4,936 11.7 58.0°
Reaches altitude 10° 11:26:06 10° 269° (W) 3,947 11.3 58.1°
Maximum altitude 11:36:19 89° 184° (S) 1,673 10.5 58.0°
Drops below altitude 10° 11:46:20 10° 93° (E) 3,872 11.2 57.9°
Sets 11:49:24 0° 94° (E) 4,839 11.6 57.8°
